STARLINK-35569 (66471 NORAD) Tracking and Keplerian Element Data

This shows tracking and keplerian element data for the satellite.

Feedback or suggestion? Click here.




ElementValue
Catalog66471
NameSTARLINK-35569
Epoch Orbit670
Epoch Day354.1364713
Epoch Year2025
RAAN28.5697
Inclination43.0001
Eccentricity0.0001185
Argument of Perigee278.0141
Mean Anonmoly82.0581
Mean Motion15.40722916
Decay Rate0.00029238
L11 66471U 25262R 25354.13647130 .00029238 00000+0 70397-3 0 9997
L22 66471 43.0001 28.5697 0001185 278.0141 82.0581 15.40722916 6703



Live tracking and technical data element details for STARLINK-35569 (NORAD 66471). STARLINK-35569 can be tracked NOW for your location showing map with azimuth and elevation plus other details from your city location.







IsCatalogInMostPopularTable: catalog: 66471, numindb: 2
Update: records affected: 1



GetName: 66471 STARLINK-35569

Hit Count: updated at: Mon, 09 Feb 2026 09:11:17 GMT